Regional Weather Roundup
Issued by NWS

Home | Current Version | Previous Version | Graphics & Text | Print | Product List | Glossary On
Versions: 1 2 3 4 5 6 7 8 9 10 11 12 13 14 15 16 17 18 19 20 21 22 23 24 25 26 27 28 29 30 31 32 33 34 35 36 37 38 39 40 41 42 43 44 45 46 47 48 49 50
000
ASUS43 KTOP 021108
RWRKS

WEATHER ROUNDUP FOR KANSAS
NATIONAL WEATHER SERVICE GOODLAND KS
600 AM CDT SUN AUG 02 2015

NOTE:  "FAIR" INDICATES FEW OR NO CLOUDS BELOW 12,000 FEET WITH NO
SIGNIFICANT WEATHER AND/OR OBSTRUCTIONS TO VISIBILITY.

KSZ001>006-013>018-027>032-041>047-021200-
NORTHWEST KANSAS

CITY           SKY/WX    TMP DP  RH WIND       PRES   REMARKS
GOODLAND       CLEAR     65  63  93 SW5       29.99S
HAYS           PTCLDY    70  63  78 S7        29.94S
HILL CITY      CLEAR     69  66  90 SW3       29.94S
RUSSELL        PTCLDY    71  69  93 S9        29.92S
$$

KSZ061>065-074>080-084>089-021200-
SOUTHWEST KANSAS

CITY           SKY/WX    TMP DP  RH WIND       PRES   REMARKS
DODGE CITY     PTCLDY    67  66  97 S8        29.97S
ELKHART          N/A     69  59  70 S10         N/A
GARDEN CITY    MOCLDY    69  67  93 S5        29.97R
GREAT BEND     CLEAR     70  64  83 S3        29.95S
LIBERAL        CLOUDY    70  59  68 SW8       29.96F
PRATT          CLEAR     68  68 100 S6        29.97S
$$

KSZ066>073-081>083-090>101-021200-
SOUTHEAST KANSAS

CITY           SKY/WX    TMP DP  RH WIND       PRES   REMARKS
CHANUTE        CLEAR     68  64  87 S7        29.96S
COFFEYVILLE    MOCLDY    67  65  93 E3        29.96R
HUTCHINSON     CLEAR     72  68  87 S3        29.95S
MEDICINE LODGE   N/A     72  70  93 S5        29.95S
NEWTON         PTCLDY    70  63  78 S7        29.97F
PARSONS        PTCLDY    66  65  96 CALM      29.97S
WICHITA INTL   PTCLDY    71  67  87 S6        29.95R
WICHITA JABRA  CLEAR     70  66  87 S5        29.95S
WICHITA MCCONL CLEAR     71  65  82 SE5       29.95S
WINFIELD       PTCLDY    70  67  90 S5        29.96S
$$

KSZ007>012-019>026-033>040-048>060-102>105-021200-
NORTHEAST KANSAS

CITY           SKY/WX    TMP DP  RH WIND       PRES   REMARKS
CONCORDIA      PTCLDY    72  69  90 S10       29.91S
EMPORIA        PTCLDY    69  66  90 S8        29.94S
LAWRENCE       PTCLDY    69  66  90 E3        29.92S
MANHATTAN      PTCLDY    73  70  90 SW7       29.90F
MARYSVILLE     PTCLDY    73  70  88 SW8       29.89S
OLATHE IND     PTCLDY    71  67  87 S8        29.94S
OLATHE EXE     PTCLDY    69  66  90 S3        29.93S
SALINA         MOCLDY    73  69  87 S7        29.92S
TOPEKA BILLARD PTCLDY    75  67  76 SW5       29.91F
TOPEKA FORBES  PTCLDY    73  67  81 SW7       29.92F
$$



USA.gov is the U.S. government's official web portal to all federal, state and local government web resources and services.